Regional Weather Roundup
Issued by NWS Wakefield, VA

Home | Current Version | Previous Version | Text Only | Print | Product List | Glossary Off
Versions: 1 2 3 4 5 6 7 8 9 10 11 12 13 14 15 16 17 18 19 20 21 22 23 24 25 26 27

000
ASUS41 KAKQ 231210
RWRAKQ

REGIONAL WEATHER ROUNDUP
NATIONAL WEATHER SERVICE WAKEFIELD VA
800 AM EDT THU OCT 23 2014

Note: "fair" indicates few or no clouds below 12,000 feet with no
significant weather and/or obstructions to visibility. * = Denotes
station may not report precipitation (e.g., rain,snow,etc.),
thunder or fog.

VAZ042-051-052>054-056-231300-
NORTHERN VIRGINIA

CITY           SKY/WX    TMP DP  RH WIND       PRES   REMARKS
WASH NATIONAL  CLOUDY    56  42  59 NW15G26   29.90S
DULLES         MOCLDY    51  42  71 NW20G26   29.92S
FORT BELVOIR   CLOUDY    53  42  66 NW18G29   29.91R
QUANTICO       MOCLDY    53  42  66 NW13G23   29.93R
FREDERICKSBRG* CLOUDY    54  43  67 NW10G17   29.93R
STAFFORD*      CLOUDY    52  41  66 NW13G18   29.97S
WARRENTON      MOCLDY    53  47  78 NW12G22   29.94R
CULPEPER*      CLOUDY    54  43  66 NW7       29.95S
MANASSAS*      CLOUDY    54  43  66 N14G22    29.94R
LEESBURG*      CLOUDY    52  45  76 NW16G24   29.93S
WINCHESTER     CLOUDY    52  37  58 NW18G25   29.97S
FRONT ROYAL*   CLOUDY    50  41  71 CALM      29.99R
LURAY*         PTSUNNY   52  43  71 NW6G17    29.99S
$$

VAZ048-049-060>072-079>083-231300-
CENTRAL AND SOUTH CENTRAL VIRGINIA...AND NORTH CENTRAL NORTH CAROLINA

CITY           SKY/WX    TMP DP  RH WIND       PRES   REMARKS
RICHMOND       MOCLDY    52  41  66 NW8       29.95R
CHESTERFIELD*  PTSUNNY   48  34  57 NW8       29.96S
PETERSBURG*    MOCLDY    48  39  71 W9        29.96S
HANOVER        CLOUDY    48  42  80 W6        29.96R
TAPPAHANNOCK*  CLOUDY    53  39  60 W6G16     29.92R
CHARLOTTSVILLE PTCLDY    53  39  59 VRB6      29.97R
ORANGE*        CLOUDY    52  43  71 SW6       29.97R
LOUISA*        CLOUDY    46  43  87 W3        29.95R
FARMVILLE*     CLEAR     46  43  87 CALM      29.97S
CREWE*         SUNNY     47  39  73 NW8       29.97S
FORT PICKETT*  SUNNY     44  40  85 W6        29.97R
LUNENBURG*     SUNNY     44  41  88 W3        29.98R
SOUTH HILL*    CLEAR     46  43  87 W5        30.03S
LAWRENCEVILLE* SUNNY     42  40  95 CALM      29.98R
ROANOKE RAPIDS SUNNY     46  41  81 W5        29.98R
RALEIGH        CLEAR     43  38  82 CALM      30.02S
$$

VAZ088>098-231300-
SOUTHEAST VIRGINIA

CITY           SKY/WX    TMP DP  RH WIND       PRES   REMARKS
NORFOLK        CLOUDY    54  42  64 NW8       29.89S
VIRGINIA BEACH MOCLDY    55  43  63 NW14      29.88R
NORFOLK NAVAL  MOCLDY    55  43  63 NW17G28   29.91R
WEST POINT*    CLOUDY    53  43  68 W9        29.93R
NEWPORT NEWS   CLOUDY    55  43  63 NW13G23   29.91R
LANGLEY AFB    MOCLDY    52  43  70 NW15G21   29.90R
FORT EUSTIS    CLOUDY    53  42  65 NW18G24   29.90R
WILLIAMSBURG*  CLEAR     54  45  71 NW12G18   29.93R
HR EXEC AP*    CLOUDY    50  43  76 W7        29.94R
FRANKLIN*      CLOUDY    50  43  76 NW9       29.94S
WAKEFIELD      MOCLDY    50  42  74 VRB5      29.94R
$$

VAZ020-022-025-037-045-231300-
WEST CENTRAL AND SOUTHWEST VIRGINIA

CITY           SKY/WX    TMP DP  RH WIND       PRES   REMARKS
STAUNTON*      MOCLDY    45  37  76 W5        30.04S
HOT SPRINGS VA CLOUDY    38  37  93 NW22      30.03R
LYNCHBURG      CLEAR     49  38  65 NW13G18   30.02F
DANVILLE       CLEAR     45  39  79 W8        30.03S
SOUTH BOSTON*  NOT AVBL
MARTINSVILLE   CLEAR     49  39  70 NW13G18   30.07R
ROANOKE        PTCLDY    48  37  65 NW22      30.07F
BLACKSBURG     CLOUDY    45  41  87 NW6       30.12S
DUBLIN*        CLOUDY    46  40  80 NW10      30.13S
MARION*        CLOUDY    44  37  78 W5        30.17S
HILLSVILLE*    CLOUDY    42  37  82 NW20      30.09S
RICHLANDS*     CLOUDY    44  40  87 NW9       30.17S
WISE*          CLOUDY    41  39  93 N6        30.20S
ABINGDON*      CLOUDY    46  40  78 CALM      30.19R
$$

MDZ021>025-VAZ099-100-231300-
SOUTHERN MARYLAND AND THE DELMARVA PENINSULA

CITY           SKY/WX    TMP DP  RH WIND       PRES   REMARKS
PATUXENT RIVER CLOUDY    53  43  68 NW16G24   29.86R
BAY BRIDGE APT   N/A     54  43  66 NW16G26   29.84S
LEONARDTOWN    CLOUDY    52  41  66 W13       29.88S
DOVER          CLOUDY    52  45  77 NW15G24   29.76R
GEORGETOWN     CLOUDY    53  45  74 NW6       29.79R
EASTON         CLOUDY    55  48  76 N12G21    29.86S
CAMBRIDGE      CLOUDY    55  45  67 NW14G24   29.82S VSB<1/4
SALISBURY      CLOUDY    56  45  66 NW16G23   29.80R
OCEAN CITY     CLOUDY    52  46  80 NW12G21   29.78R
WALLOPS ISLAND CLOUDY    54  46  74 NW13G26   29.81R
ACCOMACK*      CLOUDY    54  45  71 NW18G29   29.84R
$$

NCZ012>017-030>032-231300-
EASTERN NORTH CAROLINA

CITY           SKY/WX    TMP DP  RH WIND       PRES   REMARKS
ELIZABETH CITY CLOUDY    52  43  71 W14       29.91S
AHOSKIE*       MOCLDY    47  41  81 CALM      29.97R
EDENTON*       PTCLDY    50  44  79 NW8       29.94S
CURRITUCK*     PTCLDY    50  43  74 W10       29.90R
KILL DEVIL HLS MOCLDY    53  46  75 NW15G23   29.88S
MANTEO         CLOUDY    54  44  70 NW15G26   29.90R
CAPE HATTERAS  CLEAR     54  46  74 NW13G26   29.91R
TARBORO*       SUNNY     47  42  85 W7        29.99S
GOLDSBORO      CLEAR     47  46  97 CALM      29.99S
WASHINGTON     CLEAR     47  42  82 CALM      29.98S
GREENVILLE     CLEAR     46  43  87 NW5       30.00S
NEW BERN       CLEAR     50  43  77 W9        30.00R
WILMINGTON     CLEAR     47  42  83 NW6       30.01R
$$

VAZ048-231300-
ELSEWHERE

CITY           SKY/WX    TMP DP  RH WIND       PRES   REMARKS
HARRISBURG PA  CLOUDY    53  41  63 N13G20    29.88R
BALTIMORE      MOCLDY    53  43  68 NW10G17   29.85F
ANNAPOLIS      CLOUDY    54  44  69 NW10      29.85S
ANDREWS AFB    CLOUDY    53  43  69 W15G23    29.88S
WILMINGTON DE  CLOUDY    51  46  83 NW14      29.80S
PHILADELPHIA   LGT RAIN  51  46  83 NW16G24   29.77S
WILDWOOD NJ*   CLOUDY    54  43  66 NW13G21   29.75S
ATLANTIC CITY  CLOUDY    50  49  96 NW16      29.72R
HENDERSON NC   CLEAR     47  38  71 W5        30.00S
GREENSBORO     CLEAR     42  37  82 W6        30.03S
ROCKY MOUNT    CLEAR     48  41  76 W7        29.99S
FAYETTEVILLE   CLEAR     51  40  65 NW12      30.02S
CHARLOTTE      CLEAR     41  37  86 NW6       30.09S
$$

VAZ100-231300-
MARINE

STATION/POSITION TIME  TEMP    WIND        PRES    WAVE   SWELL
                       AIR SEA DIR/SP/G            HT/PER HT/PER
                 (UTC) (F)     (DEG/KT/KT) (MB)    (FT/S) (FT/S)
44066 TX TWR #4  1200   59 67  360/ 27/ 31  999.4R  12/ 8
CAPE MAY NJ      1200   55 65  330/ 21/ 30 1006.6R
LEWES DE         1200   55 60  320/ 26/ 30 1007.5R
15NM E FENWICK I 1200   57 65  320/ 25/ 33 1005.8R   9/ 6
OCEAN-CITY-INLET 1200   54 63  330/ 14/ 21 1007.7R
WACHAPREAGUE VA  1200   54 60  320/  5/ 18 1010.3R
THOMAS POINT MD  1200   54 61  310/ 16/ 19 1011.6R
GOOSES REEF MD   1200   55     330/ 19/ 25 1010.8F
COVE POINT MD    1200   54     330/ 17/ 21 1010.5R
SOLOMONS ISLAND  1200      63                N/A
BISHOPS HEAD MD  1200   54 55  320/ 18/ 23 1009.8S
PINEY POINT MD   1200          340/ 26/ 30   N/A
POTOMAC MD       1200   56     330/ 21/ 25 1010.6R
CAMBRIDGE MD     1200   56 60  310/ 17/ 24 1009.7S
LEWISETTA VA     1200   55 60  320/ 16/ 20 1011.4S
RAPPAHANNOCK LGT 1200          310/ 27/ 29 1011.2R
STINGRAY PT      1200   55     310/ 19/ 23 1011.9S
YORK RVR RNG VA  1200   54     320/ 19/ 23 1011.7R
YORKTOWN VA      1200   54 65  300/ 17/ 20 1012.1R
JAMESTOWN VA     1200   53     330/ 17/ 21   N/A
DOMINION TERM VA 1200   55     330/ 21/ 30 1012.1F
KIPTOPEKE VA     1200      64  320/ 24/ 30   N/A
CHES BAY BRIDGE  1200   54 65  290/ 23/ 26 1011.4R
CAPE HENRY VA    1200   55     290/ 20/ 28 1010.4R
CHESAPEAKE LGHT  1100   56     320/ 27/ 32 1011.3R
WILLOUBY STN VA  1200   54     320/ 19/ 23 1011.0R
S CRANEY ISL VA  1200          290/ 12/ 23 1012.0R
CAPE HENRY BUOY  1200      68                N/A     7/ 5   2/11
1ST LANDING BUOY 1200   57     320/ 23/ 29 1010.8S
CAPE CHARLES BUO 1200      67                N/A     5/10   3/10
64NM E OF VA BCH 1200   59 71  310/ 27/ 33 1008.3R  12/10
DUCK PIER NC     1200   52 67  290/ 17/ 22 1011.3F
44100 DUCK FRF   1200      69                N/A     7/ 7   2/11
44056 DUCK FRF   1200                        N/A     5/ 9   2/11
OREGON INLET NC  1200   55 62  300/ 17/ 24 1011.8R
HATTERAS NC      1200   56 63  310/ 23/ 27 1013.2S
DIAMOND SHLS NC  1200   58     300/ 23/ 29 1012.2R   6/ 6   2/10
CAPE LOOKOUT NC  1100   55     310/ 15/ 18 1014.3R
$$



USA.gov is the U.S. government's official web portal to all federal, state and local government web resources and services.